Theta_e
317 317 317 316 315 315 315 315 314 314 314 313 313 314 314 314 315 316 316 314 314 314 314 313 313 314 310 303 303 322 333 331 315 308 303 301 302 300 295 297 299 297 300 304 305 304 302
317 317 316 316 316 316 315 315 314 314 314 314 314 313 313 313 314 315 315 316 313 314 313 313 313 315 306 296 316 322 315 311 309 306 304 303 303 303 299 298 296 300 302 302 303 302 302
318 317 317 317 317 316 316 315 314 314 314 314 314 314 313 313 313 314 314 314 313 313 314 314 314 313 305 302 315 315 313 308 309 310 310 310 308 302 303 297 301 301 297 300 301 301 300
318 318 318 317 317 317 316 315 314 314 314 314 314 314 313 313 313 313 313 314 314 314 315 315 315 310 302 317 314 312 313 313 314 311 313 311 308 305 301 302 302 298 295 289 297 301 303
319 319 318 318 317 317 316 316 315 314 314 315 315 314 314 313 312 312 313 312 315 315 315 315 310 306 304 316 310 310 312 312 314 313 310 315 308 302 303 295 292 294 289 292 296 302 302
319 320 319 319 318 317 316 316 315 315 315 315 315 314 314 313 312 312 311 313 316 314 314 315 314 304 310 309 312 311 308 315 310 307 307 305 300 295 294 290 285 290 291 294 295 299 300
319 319 319 319 319 317 316 316 316 316 315 315 315 315 314 313 313 311 308 307 309 307 311 306 307 306 310 316 313 307 308 311 311 304 296 300 293 290 294 296 297 297 295 293 296 301 298
318 318 318 318 318 317 316 316 316 316 316 315 315 315 314 313 312 311 306 302 309 308 302 312 312 311 314 316 307 307 307 304 304 297 299 296 292 299 302 301 299 297 294 293 297 301 297
317 317 317 317 317 316 316 316 315 315 315 315 314 314 314 313 311 307 303 306 312 312 300 305 311 310 309 311 305 305 304 303 301 298 297 293 297 303 302 299 298 296 294 294 295 299 298
316 317 317 316 315 315 315 315 315 315 315 314 313 313 313 312 305 308 307 313 311 312 294 301 305 309 310 309 303 311 310 304 301 297 298 297 302 301 300 298 298 292 299 298 298 294 287
316 316 316 315 315 314 314 314 315 314 314 313 313 313 312 311 302 304 313 315 314 309 285 304 304 312 309 304 305 305 311 306 298 299 298 296 298 297 296 297 299 296 301 297 297 292 289
316 316 315 315 315 314 314 313 313 313 312 313 313 313 312 309 305 307 313 313 310 294 287 301 305 303 301 303 304 305 306 308 306 300 299 298 303 299 298 301 301 302 298 296 294 289 284
315 315 315 314 314 314 313 313 313 313 312 313 313 312 309 308 307 315 316 308 292 289 306 301 300 302 301 300 301 302 301 298 294 290 292 298 299 301 303 296 299 296 290 283 282 283 283
315 314 314 314 314 313 313 312 312 312 312 312 311 309 308 309 312 313 310 299 288 301 301 307 304 302 298 301 300 301 299 295 299 297 293 291 290 299 304 299 295 295 293 285 279 280 284
313 313 313 314 313 313 313 312 312 311 311 310 308 309 312 315 314 313 303 291 297 301 302 301 302 298 298 302 302 300 298 297 301 302 294 293 294 304 305 305 302 296 293 297 289 289 284
312 311 311 312 312 313 312 312 312 311 311 309 303 304 312 320 318 311 300 296 302 304 304 303 295 300 296 300 300 298 298 303 301 305 303 298 291 300 302 303 303 298 300 291 290 281 279
312 312 311 311 311 312 312 312 312 311 309 307 303 305 314 318 316 306 295 300 304 305 305 301 299 298 299 298 298 297 299 302 303 301 302 297 294 295 299 296 294 295 294 294 292 290 281
312 312 311 311 311 310 311 311 311 311 308 306 303 302 315 318 302 304 300 304 304 303 306 304 304 301 298 299 296 296 297 299 304 303 296 297 294 289 293 299 301 297 294 296 289 287 288
312 311 311 310 310 309 309 310 310 310 309 304 298 305 317 315 296 299 306 304 306 303 302 302 301 302 301 296 291 297 298 303 303 302 299 297 290 283 287 292 298 295 297 295 296 294 289
311 311 310 310 310 308 309 309 310 310 309 305 300 300 307 308 306 301 301 300 300 305 301 302 301 301 297 294 297 294 297 301 302 303 307 302 292 288 282 288 292 291 294 295 294 288 290
310 310 310 310 308 308 308 309 309 309 309 305 302 302 304 297 300 301 300 299 298 298 302 301 298 299 295 289 292 292 297 297 301 305 300 295 287 290 291 293 293 291 291 292 290 291 287
308 308 308 308 308 309 309 309 309 308 308 303 301 299 301 298 302 300 298 297 297 298 298 297 295 298 296 290 291 289 292 292 292 297 296 299 288 289 288 292 292 290 292 292 293 292 292
308 308 307 308 308 308 308 308 309 309 308 305 306 307 301 299 298 297 297 299 298 298 300 300 297 295 294 295 297 296 296 296 295 292 291 293 291 288 284 290 289 283 289 291 293 295 294
306 307 307 307 307 308 308 309 308 308 309 308 306 304 297 294 297 297 299 299 298 297 294 297 297 293 298 301 299 297 295 296 295 294 296 290 290 288 283 285 276 288 296 296 295 297 298
305 306 306 306 306 307 307 308 308 308 309 308 308 305 300 293 297 297 298 298 298 297 295 296 299 300 300 295 289 287 289 290 293 295 294 293 290 286 282 278 286 289 295 295 292 293 299
305 305 305 306 306 306 306 307 308 307 307 307 307 310 303 295 295 299 297 298 293 292 294 297 300 301 297 291 288 281 281 288 290 293 300 297 295 287 285 280 277 290 298 302 298 287 301
304 304 304 305 306 306 306 307 307 307 307 306 305 310 304 296 299 300 295 295 298 295 291 296 295 293 296 289 285 283 284 292 284 287 288 288 287 285 284 282 286 296 299 303 287 287 300
304 303 304 305 305 306 306 306 306 306 306 305 304 308 304 298 298 301 303 298 297 295 289 294 291 293 292 285 286 287 285 288 288 293 291 288 284 282 284 282 278 300 298 292 296 300 300
304 304 304 304 305 305 305 305 305 305 306 307 301 309 308 300 298 303 303 305 303 303 297 295 294 295 295 289 288 290 287 287 286 280 293 285 290 288 287 285 296 300 298 300 300 299 298
Wind_Speed
16 16 16 16 15 15 15 15 14 15 16 15 14 16 17 18 16 15 13 12 11 9 9 8 8 8 5 4 11 5 10 13 8 6 10 12 9 7 7 9 10 10 10 14 18 12 7
15 16 17 17 15 14 15 15 16 15 16 17 16 15 17 17 18 16 14 11 12 10 8 7 6 7 4 6 3 13 10 8 9 8 10 12 9 10 8 10 9 10 15 14 12 12 5
16 17 18 16 14 14 14 16 16 16 16 16 17 17 16 17 17 17 17 15 15 12 10 7 6 5 5 16 6 10 12 7 8 11 12 15 13 6 6 9 8 9 8 8 10 4 9
16 16 16 15 14 14 15 16 15 15 16 15 16 17 17 18 18 18 19 20 14 11 9 7 5 4 9 8 12 9 10 11 11 16 15 9 10 3 2 8 9 7 5 5 6 7 10
16 15 14 15 14 14 14 16 16 16 16 16 15 16 17 19 19 20 19 22 15 7 8 6 4 5 9 3 9 11 13 13 15 11 7 8 6 3 7 5 6 5 5 8 10 16 16
17 16 15 15 15 15 14 15 16 17 17 18 16 16 17 18 18 18 20 20 8 3 4 7 9 4 8 7 9 9 8 10 5 6 3 3 0 3 4 1 6 8 7 8 13 14 14
16 16 15 15 15 16 16 16 17 17 18 18 18 18 17 19 18 14 9 4 1 2 5 11 10 7 11 10 7 6 9 9 7 7 7 7 4 7 12 12 13 11 12 11 9 9 6
15 14 16 16 17 14 15 16 17 18 19 19 20 19 21 19 20 13 6 6 10 3 7 18 17 17 16 10 6 8 10 7 7 7 8 6 10 11 12 13 12 13 13 12 7 8 6
13 15 15 15 15 15 15 16 17 18 19 20 19 20 20 21 22 10 9 15 11 14 4 11 17 10 6 7 5 5 13 8 7 8 8 9 10 17 17 13 12 10 6 7 5 10 9
14 13 15 15 16 17 17 17 18 18 19 20 21 21 20 23 5 5 6 11 19 11 4 7 7 10 9 5 6 11 5 7 5 9 12 9 13 17 12 11 7 6 10 12 7 5 6
13 14 14 14 15 17 17 18 19 19 20 21 22 21 20 10 8 6 6 12 11 4 3 10 9 7 9 12 3 6 9 5 7 10 5 7 7 9 9 6 12 4 8 10 6 5 2
13 13 14 15 16 16 17 17 18 19 22 21 22 21 20 6 5 13 15 14 5 0 7 11 8 9 10 10 12 10 7 4 4 6 9 12 9 6 4 10 8 7 6 7 5 2 7
13 15 15 15 16 17 17 19 20 20 22 24 25 24 10 8 6 6 9 3 1 5 4 2 8 13 14 12 10 10 12 9 6 5 9 13 14 13 14 9 8 4 3 4 5 3 6
13 14 15 15 16 17 18 19 20 21 22 24 27 31 6 10 9 11 2 2 5 1 1 9 12 16 15 13 10 15 13 9 12 11 7 5 9 15 8 9 5 8 5 4 6 4 8
15 15 16 16 16 16 17 19 20 23 24 25 26 4 4 6 12 3 2 4 3 5 8 8 6 4 6 8 5 10 13 13 7 1 1 4 4 12 11 9 2 4 7 7 4 7 4
15 18 18 17 16 17 18 19 20 22 24 26 6 5 7 8 11 3 2 5 5 5 7 6 4 5 4 6 9 8 5 4 5 3 7 3 5 6 6 8 8 2 4 6 1 3 5
14 15 15 17 16 17 18 19 19 20 24 27 2 4 2 9 4 1 4 5 7 8 4 5 7 6 6 2 9 4 0 3 7 7 8 5 2 4 6 2 4 6 6 5 3 7 7
15 15 16 17 18 19 17 18 18 19 23 8 4 3 5 6 2 4 4 1 10 2 6 2 2 3 5 6 4 4 3 6 6 5 4 2 1 3 5 11 10 6 7 1 2 6 3
14 14 15 15 15 19 19 17 17 15 12 5 5 4 3 5 3 4 4 11 12 2 6 6 5 6 6 3 3 5 6 10 8 6 4 2 2 3 7 5 7 5 8 5 5 2 4
13 13 14 15 16 18 16 16 16 15 10 4 4 4 0 2 4 5 2 7 8 8 3 3 6 5 1 3 4 2 4 3 5 6 8 5 2 5 5 7 7 7 10 10 5 3 2
14 14 15 15 16 17 16 15 15 15 12 2 3 3 5 3 3 5 6 8 10 5 6 5 2 1 5 3 7 4 1 8 1 12 5 3 2 5 8 11 14 15 15 13 16 14 14
15 15 15 15 14 14 13 13 15 16 20 3 3 4 5 7 9 4 2 5 8 7 4 5 4 9 8 3 3 6 5 4 3 2 4 3 1 4 5 12 16 20 17 19 19 20 23
15 15 14 15 14 13 12 13 13 13 13 3 3 5 2 5 8 4 3 4 9 6 1 4 7 3 4 7 6 6 5 5 6 3 3 5 1 1 3 7 13 10 16 15 16 17 13
16 16 16 15 14 14 12 10 9 10 9 3 3 3 3 4 7 8 7 3 3 10 4 8 4 4 5 8 8 8 9 11 10 10 7 8 6 4 4 6 4 8 12 13 12 9 11
17 16 16 14 14 13 12 10 7 9 8 3 3 3 2 4 7 11 15 8 7 7 1 4 7 4 6 5 4 6 4 3 11 17 12 10 6 2 3 4 9 12 4 6 5 3 10
16 16 16 15 13 13 12 11 5 7 9 4 4 3 2 2 2 10 8 9 5 5 5 7 6 5 4 1 1 3 3 2 3 3 6 10 7 6 3 3 5 1 7 8 4 2 7
15 15 15 14 13 13 11 10 4 5 7 3 3 5 2 2 3 6 5 4 5 5 3 5 5 2 4 0 1 3 4 6 3 6 4 2 1 7 6 4 7 5 13 6 5 1 5
14 14 14 13 12 11 9 8 4 6 6 3 2 3 2 2 5 5 6 3 3 3 2 3 4 1 1 1 2 2 2 3 4 4 4 6 6 4 3 5 9 4 7 3 4 4 4
13 12 12 13 12 9 8 7 6 6 5 3 2 2 1 1 3 3 9 10 7 1 2 2 2 4 2 2 3 2 3 4 4 3 4 2 5 2 7 6 3 4 5 6 6 3 5
Wind_Direction
349 349 348 348 345 341 338 338 341 338 337 340 345 342 341 339 338 337 333 338 312 299 296 299 304 314 316 223 251 146 120 131 147 179 204 214 235 237 215 213 239 234 227 228 248 259 274
344 344 345 345 343 339 337 338 339 338 335 333 335 340 337 335 333 331 326 317 316 286 277 279 295 305 232 247 195 148 155 157 172 177 207 230 242 222 246 233 222 233 227 232 242 250 250
336 339 340 338 336 338 336 337 338 337 335 331 330 332 332 331 330 328 325 317 305 277 267 260 273 271 259 243 152 172 150 185 179 196 213 227 244 259 280 263 266 263 275 254 226 225 261
327 331 328 326 328 331 332 334 335 335 331 329 328 326 326 328 328 328 327 324 310 268 258 249 253 273 252 253 230 221 179 198 211 208 233 257 248 245 353 316 324 298 328 264 267 244 240
320 320 323 323 324 324 325 328 328 328 328 326 325 322 319 324 326 327 325 317 303 260 251 238 228 205 260 266 220 219 189 206 208 219 243 268 21 359 312 290 314 297 224 269 267 237 240
321 318 316 320 322 321 323 322 322 323 325 324 320 318 315 315 319 325 324 305 323 204 216 206 261 280 266 227 195 200 230 217 200 188 241 237 16 227 297 224 224 241 254 236 247 263 229
312 317 320 322 319 322 323 318 316 315 316 319 318 315 313 313 312 323 339 325 206 197 244 203 192 230 286 211 108 187 204 217 223 164 202 230 180 226 224 226 236 261 270 275 277 293 19
324 331 325 325 319 317 313 314 314 315 314 314 315 314 313 314 308 309 298 237 245 358 282 225 231 245 267 299 260 194 183 201 207 217 190 256 224 233 253 255 241 245 259 276 278 309 335
325 324 322 323 320 313 314 315 314 314 313 314 313 313 313 312 309 288 212 226 273 300 286 279 220 215 224 207 260 221 172 205 196 223 229 201 237 225 236 246 260 274 265 272 271 310 316
326 324 326 327 322 322 320 319 318 316 315 313 313 314 315 324 300 312 232 239 241 268 301 260 172 202 193 219 254 232 256 164 231 232 226 237 240 252 264 233 221 263 284 287 254 244 258
329 331 332 327 323 322 321 321 319 317 317 315 312 312 313 310 297 274 312 316 206 162 285 134 148 131 149 174 148 185 221 169 226 248 288 276 314 334 325 296 346 239 283 250 274 264 252
329 332 332 328 325 321 320 319 317 317 318 311 309 310 319 295 189 248 292 306 28 204 242 166 135 182 145 203 244 140 187 151 205 250 272 268 278 282 260 285 302 320 6 15 6 346 273
330 330 330 329 326 324 323 321 319 318 318 313 312 306 292 289 231 324 287 329 226 236 212 299 171 159 180 193 226 155 174 186 194 194 237 257 262 245 246 252 281 279 32 344 335 313 256
327 329 328 328 329 326 325 324 322 320 320 317 316 309 235 204 229 262 302 316 252 163 205 276 139 173 190 184 206 175 180 204 204 237 273 245 255 232 236 230 235 265 195 202 251 225 257
324 326 326 327 328 327 326 327 327 327 325 323 315 301 235 226 227 256 63 243 273 309 17 16 334 274 230 155 272 197 183 200 187 153 87 3 265 331 191 282 302 253 284 203 13 326 308
323 327 328 325 325 329 329 330 331 332 329 322 314 291 264 201 191 138 166 251 284 37 38 338 295 340 78 120 355 25 58 26 75 95 140 233 325 307 353 17 332 294 269 278 72 270 267
315 315 320 322 324 331 331 330 333 337 334 319 242 281 201 139 107 179 225 256 303 111 48 351 9 351 48 120 160 150 188 58 54 24 11 42 138 295 343 215 268 319 316 285 161 151 192
308 314 322 325 326 331 331 329 335 341 340 350 313 267 195 124 142 221 252 303 277 82 111 252 272 350 49 41 13 1 48 53 64 34 358 76 45 285 266 287 284 297 287 29 145 266 279
306 311 315 319 322 330 328 331 338 344 8 319 311 274 253 119 238 236 27 325 281 354 46 9 23 59 72 69 43 355 29 107 80 41 41 348 13 332 309 301 35 48 334 343 121 84 219
305 310 313 321 321 327 326 332 336 339 341 319 286 296 345 177 248 283 269 194 254 87 124 58 18 44 337 294 144 223 348 84 123 91 99 50 277 204 220 289 322 294 291 291 210 232 254
311 308 309 313 317 321 324 330 334 336 324 282 244 286 2 328 8 343 13 320 315 138 58 66 302 240 79 19 9 331 45 355 46 152 123 113 196 301 299 305 300 287 281 270 268 264 236
308 302 306 309 313 316 320 332 337 337 328 210 306 356 344 293 303 328 270 260 262 85 48 97 36 44 56 37 293 304 351 15 268 133 76 51 288 0 286 273 267 270 262 258 254 258 264
313 313 315 315 316 315 319 328 341 345 339 318 352 326 303 292 310 310 288 79 60 59 279 49 33 15 7 36 355 336 304 255 233 220 104 120 121 307 250 329 328 307 255 257 258 255 251
315 313 311 310 314 315 318 322 342 349 360 304 298 287 312 292 307 330 318 71 36 65 14 4 339 4 45 356 329 296 250 242 243 246 191 157 164 141 270 314 255 247 308 295 300 19 358
313 313 312 313 314 314 316 323 328 347 344 287 301 326 345 295 331 330 351 194 119 108 288 272 60 54 18 346 314 309 259 166 235 219 209 181 136 206 230 203 287 297 330 6 51 29 21
316 318 317 316 315 314 313 314 305 340 348 298 311 328 287 307 66 338 320 33 32 48 339 100 81 59 20 279 271 272 290 336 139 58 72 174 161 171 173 224 248 297 17 335 77 228 20
316 315 316 318 318 315 319 317 319 345 344 318 313 333 307 292 38 10 18 349 17 15 16 20 8 37 8 326 255 250 248 301 300 134 173 111 41 218 238 260 274 329 331 62 260 212 313
315 316 317 319 323 322 324 327 345 328 331 324 293 303 344 319 311 333 347 334 350 50 59 353 338 230 288 250 256 285 303 292 323 130 188 174 169 189 187 233 257 34 360 357 265 299 323
314 317 322 322 319 320 322 314 308 300 308 324 276 58 9 193 297 319 281 279 275 319 166 173 329 347 329 5 351 320 295 325 328 285 343 294 191 210 185 222 285 283 218 31 36 17 346